QB50P1 (40025 NORAD) Tracking and Keplerian Element Data

This shows tracking and keplerian element data for the satellite.

Feedback or suggestion? Click here.




ElementValue
Catalog40025
NameQB50P1
Epoch Orbit56053
Epoch Day286.86721529
Epoch Year2024
RAAN251.8323
Inclination98.0543
Eccentricity0.0013402
Argument of Perigee136.0855
Mean Anonmoly224.1436
Mean Motion15.03118499
Decay Rate0.00019778
L11 40025U 14033R 24286.86721529 .00019778 00000+0 14642-2 0 9994
L22 40025 98.0543 251.8323 0013402 136.0855 224.1436 15.03118499560536



Live tracking and technical data element details for QB50P1 (NORAD 40025). QB50P1 can be tracked NOW for your location showing map with azimuth and elevation plus other details from your city location.







IsCatalogInMostPopularTable: catalog: 40025, numindb: 375
Update: records affected: 1



GetName: 40025 QB50P1

Hit Count: updated at: Fri, 24 Jan 2025 22:43:40 GMT